{"data":{"norad_id":67544,"epoch":"2026-05-25T02:32:26.305728Z","epoch_age_seconds":59161,"freshness":"FRESH","line1":"1 67544U 26014N   26145.10586002  .00018462  00000+0  57273-3 0  9996","line2":"2 67544  97.2866  32.1411 0001481  90.0909 270.0503 15.33447524 20499","mean_motion":15.33447524,"eccentricity":0.0001481,"inclination_deg":97.2866,"raan_deg":32.1411,"arg_perigee_deg":90.0909,"mean_anomaly_deg":270.0503,"bstar":0.00057273,"rev_number":2049,"period_min":93.906050090567,"perigee_km":464.52211691855,"apogee_km":466.54921276188,"semimajor_km":6843.6726648402,"source":"CELESTRAK","updated_at":"2026-05-25T13:38:21.609123Z"}}